Погода в Высоком

Украина / Харьковская область     49°52′54″N   36°06′49″E
темп.,
°C
ветер,
м/с
пор.,
м/с
влажн.,
%
обл.,
%
осадки,
мм/ч
давл.,
гПа
погр.,
м
24 июля, сб
сб2400:00+17ссз22630 0.0 101338
03:00+16сз33670 0.0 101350
06:00+16сз23720 0.0 101370
09:00+23сз23481 0.0 1014670
12:00+26ссз433850 0.0 10142192
15:00+26з4439100 0.0 10141481
18:00+25ссв454738 0.0 1015841
21:00+22с355782 0.0 1016125
25 июля, вс
вс2500:00+20св226760 0.0 101764
03:00+18всв237011 0.0 101856
06:00+18в346536 0.0 1019106
09:00+23в344562 0.1 1020832
12:00+27вюв323630 0.1 10201972
15:00+26в443887 0.1 10201274
18:00+26в2440100 0.0 1020638
21:00+22в364643 0.0 1021148
26 июля, пн
пн2600:00+19в35532 0.0 102282
03:00+18в345399 0.0 102265
06:00+18всв245436 0.0 102377
09:00+21всв354789 0.0 1023387
12:00+28всв45293 0.0 10222221
15:00+29всв552818 0.0 10222586
18:00+28всв55312 0.0 10212407
21:00+22всв35460 0.0 1022102
27 июля, вт
вт2700:00+19св37560 0.0 1023121
03:00+17всв35590 0.0 102382
06:00+17всв23600 0.0 102357
09:00+25всв45350 0.0 1022693
12:00+28всв55270 0.0 10222095
15:00+30всв54260 0.0 10212420
18:00+28всв53280 0.0 10202238
21:00+22всв47410 0.0 1021117
28 июля, ср
ср2800:00+20в23470 0.0 102141
03:00+18в22530 0.0 102129
06:00+18вюв22530 0.0 102034
09:00+26вюв34320 0.0 1019669
12:00+30ююв33250 0.0 10182082
15:00+31юз332210 0.0 10162629
18:00+30юз3324100 0.0 10151977
21:00+26ююз223489 0.0 101418